Home > Weather > Molde > Past weeks

Flag for Norway Past Weather in Molde, Norway — Yesterday and Last 2 Weeks

Now
66 °F

Broken clouds.


Feels Like: 66 °F
Forecast: 56 / 64 °F
Wind: 8 mph from West

Location: Aro

Current Time: Jul 27, 2016 at 3:35:46 PM

Latest Report: Jul 27, 2016 at 2:50 PM


Visibility: N/A

Pressure: 29.77 "Hg

Humidity: 73%

Dew Point: 57 °F

Location of MoldeLocation

Past Weather in Molde — Graph

°F

Molde Temperature Yesterday

Maximum temperature yesterday: 64 °F (at 1:20 PM)
Minimum temperature yesterday: 57 °F (at 11:50 PM)
Average temperature yesterday: 61 °F

High & Low Weather Summary for the Past Weeks

 TemperatureHumidityPressure
High86 °F (Jul 21, 2:20 PM)100% (Jul 20, 3:50 AM)30.12 "Hg (Jul 20, 3:50 AM)
Low52 °F (Jul 16, 2:20 AM)33% (Jul 21, 3:50 PM)29.56 "Hg (Jul 12, 1:20 PM)
Average61 °F80%29.92 "Hg
* Reported Jul 12 1:20 PM — Jul 27 1:50 PM, Molde, Weather by CustomWeather, © 2016

Note: Actual official high and low records may vary slightly from our data, if they occured in-between our weather recording intervals... More about our weather records

Advertising

Molde Weather History for the Previous 24 Hours

Scroll right to see more
 ConditionsComfort  
Time TempWeatherWind HumidityBarometerVisibility
1:50 PM
Wed, Jul 27
68 °FScattered clouds.5 mph73%29.77 "HgN/A
1:20 PM68 °FScattered clouds.5 mph73%29.80 "HgN/A
12:50 PM66 °FScattered clouds.7 mph73%29.80 "HgN/A
11:50 AM66 °FPartly sunny.6 mph73%29.83 "HgN/A
11:20 AM64 °FPartly sunny.7 mph73%29.83 "HgN/A
10:50 AM63 °FPartly sunny.8 mph77%29.83 "HgN/A
9:50 AM63 °FScattered clouds.9 mph83%29.86 "HgN/A
9:20 AM63 °FScattered clouds.10 mph83%29.86 "HgN/A
8:50 AM63 °FScattered clouds.8 mph83%29.86 "HgN/A
8:20 AM61 °FBroken clouds.7 mph83%29.86 "HgN/A
7:50 AM59 °FPartly sunny.9 mph88%29.86 "HgN/A
7:20 AM57 °FPartly sunny.9 mph94%29.86 "HgN/A
6:50 AM57 °FPartly sunny.7 mph94%29.89 "HgN/A
6:20 AM55 °FBroken clouds.7 mph94%29.89 "HgN/A
5:50 AM55 °FPassing clouds.7 mph94%29.89 "HgN/A
5:20 AM55 °FPartly cloudy.7 mph94%29.89 "HgN/A
4:50 AM55 °FPartly cloudy.7 mph94%29.89 "HgN/A
4:20 AM57 °FOvercast.8 mph88%29.89 "HgN/A
3:50 AM55 °FPassing clouds.7 mph94%29.92 "HgN/A
3:20 AM55 °FOvercast.7 mph94%29.89 "HgN/A
2:50 AM55 °FOvercast.7 mph94%29.89 "HgN/A
2:20 AM57 °FOvercast.7 mph88%29.89 "HgN/A
1:50 AM57 °FMostly cloudy.8 mph88%29.92 "HgN/A
1:20 AM55 °FMostly cloudy.6 mph94%29.92 "HgN/A
12:50 AM57 °FRain showers. Partly cloudy.3 mph94%29.92 "HgN/A
12:20 AM57 °FRain. Partly cloudy.5 mph94%29.92 "HgN/A
11:50 PM
Tue, Jul 26
57 °FRain showers. Partly cloudy.6 mph94%29.92 "Hg6 mi
11:20 PM59 °FSprinkles. Broken clouds.5 mph88%29.92 "HgN/A
10:50 PM59 °FSprinkles. Broken clouds.5 mph88%29.89 "HgN/A
10:20 PM59 °FScattered showers. Broken clouds.5 mph88%29.89 "HgN/A
9:50 PM59 °FBroken clouds.9 mph94%29.89 "HgN/A
9:20 PM59 °FScattered showers. Broken clouds.7 mph88%29.89 "HgN/A
8:50 PM61 °FSprinkles. Broken clouds.7 mph88%29.89 "HgN/A
8:20 PM59 °FRain showers. Broken clouds.15 mph88%29.89 "HgN/A
7:20 PM61 °FScattered showers. Broken clouds.10 mph88%29.86 "HgN/A
6:50 PM59 °FSprinkles. Broken clouds.5 mph88%29.86 "HgN/A
6:20 PM61 °FScattered showers. Broken clouds.7 mph83%29.86 "HgN/A
5:50 PM61 °FSprinkles. Broken clouds.7 mph83%29.86 "HgN/A
5:20 PM64 °FRain. Broken clouds.8 mph78%29.86 "HgN/A
4:50 PM64 °FSprinkles. Broken clouds.7 mph78%29.83 "HgN/A
4:20 PM64 °FScattered showers. Broken clouds.6 mph78%29.86 "HgN/A
3:50 PM63 °FScattered showers. Broken clouds.8 mph83%29.86 "HgN/A
3:20 PM64 °FScattered showers. Broken clouds.6 mph83%29.83 "HgN/A
Weather by CustomWeather, © 2016

See weather overviewHow to use our weather pages